Location: Igri�s
(42.2144°N, 0.4320°W)
Time: 18:17:55
(UTC+00:00)

USA 234 - Pass Details

Date: 13 August 2020
Orbit: 1100 x 1108 km, 123.0° (Epoch: 16 September)

Event Time Altitude Azimuth Distance (km) Brightness Sun altitude
Exits shadow 21:58:05 46° 98° (E) 1,437 3.5 -26.2°
Maximum altitude 22:00:01 67° 36° (NE) 1,186 3.4 -26.4°
Drops below altitude 10° 22:06:30 10° 315° (NW) 2,968 6.5 -27.1°
Sets 22:09:00 0° 313° (NW) 3,929 7.3 -27.4°
